Date,TemperatureHighF,TemperatureAvgF,TemperatureLowF,DewpointHighF,DewpointAvgF,DewpointLowF,HumidityHigh,HumidityAvg,HumidityLow,PressureMaxIn,PressureMinIn,WindSpeedMaxMPH,WindSpeedAvgMPH,GustSpeedMaxMPH,PrecipitationSumIn
2013-1-1,23,15,7,10,5,-1,76,65,45,30.29,30.10,2,0,10,0.00
2013-1-2,36,23,11,28,17,6,83,77,67,30.16,30.00,1,0,9,0.00
2013-1-3,31,25,19,26,18,11,83,75,63,30.36,30.15,7,1,16,0.00
2013-1-4,39,24,16,21,15,11,84,69,42,30.28,30.10,3,0,12,0.00
2013-1-5,36,25,17,27,18,13,86,75,58,30.14,29.93,6,1,18,0.00
2013-1-6,39,26,15,23,17,10,82,71,49,30.29,30.07,5,1,16,0.00
2013-1-7,43,33,27,27,24,20,86,69,52,30.07,29.87,5,1,16,0.00
2013-1-8,45,34,24,30,26,20,88,75,55,30.04,29.76,7,1,19,0.00
2013-1-9,46,35,26,32,28,22,88,75,53,30.36,30.03,3,0,12,0.00
2013-1-10,40,36,31,37,30,24,98,81,55,30.26,29.61,4,0,14,0.07
2013-1-11,54,43,30,48,40,20,100,90,72,29.64,29.28,9,2,18,0.05
2013-1-12,29,20,12,21,7,1,72,56,45,30.09,29.64,8,3,20,0.00
2013-1-13,22,14,8,4,2,-2,69,57,35,30.31,30.09,3,1,13,0.00
2013-1-14,30,19,8,11,6,2,77,59,35,30.44,30.31,3,0,10,0.00
2013-1-15,37,25,15,16,11,7,74,57,32,30.31,29.98,4,1,13,0.00
2013-1-16,51,37,23,31,24,15,76,62,44,30.12,29.85,6,1,16,0.00
2013-1-17,36,30,24,30,25,20,91,83,69,30.39,30.12,5,0,12,0.00
2013-1-18,55,39,27,30,28,24,92,67,37,30.23,29.80,8,2,20,0.00
2013-1-19,53,39,24,29,25,9,86,60,35,30.26,29.77,11,3,21,0.00
2013-1-20,24,18,15,10,6,1,71,60,41,30.39,30.23,7,1,15,0.00
2013-1-21,16,11,5,8,-6,-11,70,47,35,30.45,30.34,5,1,17,0.00
2013-1-22,21,14,10,9,5,-4,78,67,49,30.37,30.22,2,0,6,0.01
2013-1-23,30,19,12,16,9,-3,74,63,50,30.48,30.13,9,3,17,0.01
2013-1-24,20,11,2,4,-4,-9,61,52,43,30.53,30.16,4,2,13,0.00
2013-1-25,48,29,16,24,15,3,70,54,36,30.17,30.06,2,0,11,0.00
2013-1-26,46,30,16,24,17,8,75,60,38,30.21,29.94,4,2,12,0.00
2013-1-27,42,38,34,42,36,21,99,90,53,29.94,29.59,4,1,14,0.13
2013-1-28,47,40,33,47,40,33,100,99,99,29.80,29.46,1,0,5,0.01
2013-1-29,41,34,32,41,32,29,100,91,82,29.60,29.46,9,3,21,0.03
2013-1-30,31,23,16,29,18,9,95,80,62,29.87,29.52,11,4,24,0.18
2013-1-31,11,7,1,-2,-6,-10,64,54,46,30.42,30.05,6,2,21,0.00